User: anonymous   Login
Location: Oshawa
(43.9000°N, 78.8670°W)
Time: 00:56:44
(UTC-04:00)
Language:

Cosmos 1805 Rocket - Orbit

View from above orbital plane
View from above orbital plane
View from above satellite
View from above satellite

Ground track
Ground track

The orbit data is extracted from the following two-line orbital elements,

1 17192U 86097B   16273.15081017  .00000157  00000-0  16251-4 0  9994
2 17192  82.5063 141.5117 0015587 239.4084 235.7319 14.83464249609978
Epoch (UTC): 29 September 2016 03:37:09
Eccentricity: 0.0015587
inclination: 82.5063°
perigee height: 607 km
apogee height: 629 km
right ascension of ascending node: 141.5117°
argument of perigee: 239.4084°
revolutions per day: 14.83464249
mean anomaly at epoch: 235.7319°
orbit number at epoch: 60997

The dashed part of the orbit path shows where the satellite is in the earth's shadow,  

DLR